CW6944 Weather Reports


Display with metric or nautical units.
time (UTC)temp
F
wind
direction
speed
MPH
gust
MPH
rain 1hr
in
rain 24hr
in
rain mn
in
humidity
%
barometer
mb
20260506145013 57 232 3.0 9.0 0.00 0.00 0.00 84 1020.4
20260506144534 56 213 2.0 7.0 0.00 0.00 0.00 84 1020.4
20260506144012 56 194 2.0 7.0 0.00 0.00 0.00 84 1020.3
20260506143513 56 172 1.0 7.0 0.00 0.00 0.00 84 1020.2
20260506143029 56 204 1.0 7.0 0.00 0.00 0.00 84 1020.3
20260506142514 56 171 1.0 7.0 0.00 0.00 0.00 84 1020.2
20260506142014 56 166 2.0 5.0 0.00 0.00 0.00 84 1020.1
20260506141533 56 0 1.0 5.0 0.00 0.00 0.00 84 1020.1
20260506141016 56 176 0.0 4.0 0.00 0.00 0.00 84 1020.0
20260506140515 56 0 0.0 6.0 0.00 0.00 0.00 84 1019.9
20260506140028 56 0 2.0 6.0 0.00 0.00 0.00 84 1019.8
20260506135513 56 238 1.0 7.0 0.00 0.00 0.00 83 1019.8
20260506135013 56 117 2.0 7.0 0.00 0.00 0.00 83 1019.7
20260506134527 56 120 2.0 6.0 0.00 0.00 0.00 83 1019.7
20260506134012 56 115 1.0 7.0 0.00 0.00 0.00 83 1019.6
20260506133516 56 104 1.0 7.0 0.00 0.00 0.00 83 1019.7
20260506133028 56 130 2.0 7.0 0.00 0.00 0.00 83 1019.6
20260506132522 56 165 1.0 6.0 0.00 0.00 0.00 83 1019.6
20260506132012 56 0 1.0 8.0 0.00 0.00 0.00 83 1019.6
20260506131537 56 111 2.0 8.0 0.00 0.00 0.00 83 1019.5
20260506131014 56 109 2.0 8.0 0.00 0.00 0.00 83 1019.5
20260506130514 56 113 1.0 6.0 0.00 0.00 0.00 83 1019.5
20260506130028 56 0 1.0 6.0 0.00 0.00 0.00 83 1019.5
20260506125513 56 126 1.0 6.0 0.00 0.00 0.00 83 1019.5
20260506125013 56 200 1.0 8.0 0.00 0.00 0.00 83 1019.4
20260506124529 56 0 1.0 9.0 0.00 0.00 0.00 83 1019.4
20260506124011 56 220 2.0 9.0 0.00 0.00 0.00 83 1019.4
20260506123512 56 219 1.0 8.0 0.00 0.00 0.00 83 1019.3
20260506123028 56 162 3.0 8.0 0.00 0.00 0.00 84 1019.3
20260506122514 56 243 2.0 5.0 0.00 0.00 0.00 83 1019.4
20260506122013 56 254 1.0 7.0 0.00 0.00 0.00 83 1019.4
20260506121531 56 0 1.0 7.0 0.00 0.00 0.00 83 1019.4
20260506121016 56 241 2.0 7.0 0.00 0.00 0.00 83 1019.4
20260506120512 56 213 0.0 2.0 0.00 0.00 0.00 83 1019.4
20260506120033 56 0 0.0 2.0 0.00 0.00 0.00 83 1019.4
20260506115516 56 0 0.0 2.0 0.00 0.00 0.00 83 1019.3
20260506115016 56 0 0.0 8.0 0.00 0.00 0.00 83 1019.3
20260506114533 56 0 2.0 8.0 0.00 0.00 0.00 83 1019.3
20260506114012 56 280 2.0 8.0 0.00 0.00 0.00 83 1019.3
20260506113514 56 235 1.0 8.0 0.00 0.00 0.00 83 1019.2
20260506113030 56 244 2.0 7.0 0.00 0.00 0.00 83 1019.2
20260506112512 56 220 1.0 8.0 0.00 0.00 0.00 83 1019.2
20260506112012 56 190 1.0 8.0 0.00 0.00 0.00 83 1019.2
20260506111527 56 0 1.0 3.0 0.00 0.00 0.00 83 1019.1
20260506111012 56 0 0.0 3.0 0.00 0.00 0.00 83 1019.1
20260506110514 56 266 0.0 3.0 0.00 0.00 0.00 83 1018.9
20260506110033 56 323 0.0 3.0 0.00 0.00 0.00 83 1018.9
20260506105514 56 226 1.0 3.0 0.00 0.01 0.00 83 1018.9
20260506105017 56 0 0.0 3.0 0.00 0.01 0.00 83 1018.8
20260506104530 56 11 1.0 3.0 0.00 0.01 0.00 83 1018.9
20260506104013 56 0 0.0 2.0 0.00 0.01 0.00 83 1018.8
20260506103514 56 0 0.0 9.0 0.00 0.01 0.00 83 1018.7
20260506103036 56 0 1.0 9.0 0.00 0.01 0.00 83 1018.7
20260506102511 56 0 0.0 9.0 0.00 0.01 0.00 83 1018.7
20260506102011 56 178 0.0 9.0 0.00 0.01 0.00 83 1018.6
20260506101543 56 229 3.0 9.0 0.00 0.01 0.00 83 1018.6
20260506101013 56 217 3.0 9.0 0.00 0.01 0.00 83 1018.6
20260506100512 56 211 2.0 10.0 0.00 0.01 0.00 83 1018.5
20260506100037 56 230 1.0 11.0 0.00 0.01 0.00 83 1018.5
20260506095513 56 178 1.0 11.0 0.00 0.01 0.00 83 1018.5
20260506095017 56 238 3.0 11.0 0.00 0.01 0.00 83 1018.5
20260506094530 56 250 2.0 7.0 0.00 0.01 0.00 83 1018.5
20260506094017 56 189 1.0 9.0 0.00 0.01 0.00 82 1018.5
20260506093513 56 215 4.0 9.0 0.00 0.01 0.00 82 1018.5
20260506093038 56 234 4.0 9.0 0.00 0.01 0.00 82 1018.6
20260506092512 56 238 2.0 9.0 0.00 0.01 0.00 82 1018.7
20260506092016 56 243 3.0 9.0 0.00 0.01 0.00 82 1018.8
20260506091529 56 236 2.0 8.0 0.00 0.01 0.00 82 1018.8
20260506091013 56 254 3.0 8.0 0.00 0.01 0.00 82 1018.7
20260506090512 56 158 2.0 7.0 0.00 0.01 0.00 82 1018.7
20260506090027 56 248 1.0 6.0 0.00 0.01 0.00 82 1018.7
20260506085513 56 161 1.0 6.0 0.00 0.02 0.00 82 1018.7
20260506085012 56 169 2.0 10.0 0.00 0.02 0.00 82 1018.8
20260506084528 56 236 1.0 10.0 0.00 0.02 0.00 82 1018.8
20260506084010 56 0 3.0 9.0 0.00 0.02 0.00 82 1018.8
20260506083511 56 234 2.0 9.0 0.00 0.02 0.00 82 1018.8
20260506083030 56 247 1.0 6.0 0.00 0.02 0.00 82 1018.8
20260506082512 56 0 1.0 7.0 0.00 0.02 0.00 82 1018.7
20260506082011 56 0 2.0 7.0 0.00 0.02 0.00 82 1018.7
20260506081536 56 0 1.0 4.0 0.00 0.02 0.00 82 1018.8
20260506081011 56 146 0.0 6.0 0.00 0.02 0.00 82 1018.7
20260506080511 56 0 2.0 6.0 0.00 0.02 0.00 82 1018.7
20260506073511 56 225 5.0 11.0 0.00 0.07 0.00 81 1018.4
20260506073039 56 251 4.0 15.0 0.00 0.07 0.00 81 1018.3
20260506072512 56 236 4.0 15.0 0.00 0.07 0.00 81 1018.3
20260506072011 56 232 5.0 15.0 0.00 0.07 0.00 81 1018.3
20260506071527 56 266 4.0 12.0 0.00 0.07 0.00 81 1018.3
20260506071013 56 234 3.0 12.0 0.00 0.07 0.00 81 1018.2
20260506070511 56 238 4.0 12.0 0.00 0.07 0.00 81 1018.1
20260506062511 57 248 2.0 7.0 0.00 0.09 0.07 80 1018.0
20260506062010 57 227 3.0 9.0 0.00 0.09 0.07 80 1017.9
20260506061528 57 218 2.0 10.0 0.00 0.09 0.07 80 1017.9
20260506061010 57 267 2.0 10.0 0.00 0.09 0.07 80 1017.8
20260506060510 57 246 4.0 9.0 0.00 0.09 0.07 79 1017.8
20260506051012 57 223 5.0 12.0 0.00 0.14 0.07 78 1017.4
20260506050510 57 295 4.0 10.0 0.00 0.14 0.07 78 1017.4
20260506045011 57 259 4.0 11.0 0.00 0.20 0.07 77 1017.3
20260506044601 58 286 5.0 11.0 0.00 0.20 0.07 77 1017.2
20260506044011 58 212 5.0 12.0 0.00 0.20 0.07 77 1017.1
20260506043511 58 236 4.0 12.0 0.00 0.20 0.07 77 1017.0
20260506043029 58 255 6.0 12.0 0.00 0.20 0.07 77 1017.0
20260506042511 58 232 5.0 12.0 0.00 0.20 0.07 76 1016.8
20260506042016 58 277 6.0 12.0 0.00 0.20 0.07 76 1016.9
20260506041529 58 226 6.0 12.0 0.00 0.20 0.07 76 1016.8
20260506041014 58 227 6.0 12.0 0.00 0.20 0.07 76 1016.8
20260506040511 58 216 5.0 12.0 0.00 0.20 0.07 76 1016.8
20260506040030 58 261 6.0 12.0 0.00 0.20 0.07 76 1016.7
20260506035511 58 244 5.0 11.0 0.00 0.24 0.07 77 1016.8
20260506035011 58 238 4.0 11.0 0.00 0.24 0.07 77 1016.7
20260506034551 58 236 3.0 11.0 0.00 0.24 0.07 77 1016.6
20260506034011 58 274 5.0 12.0 0.00 0.24 0.07 77 1016.6
20260506033512 59 238 4.0 12.0 0.00 0.24 0.07 77 1016.4
20260506033032 59 221 2.0 9.0 0.00 0.24 0.07 76 1016.4
20260506032509 59 244 4.0 9.0 0.00 0.24 0.07 76 1016.4
20260506032010 59 225 3.0 9.0 0.00 0.24 0.07 76 1016.3
20260506031528 59 288 3.0 10.0 0.00 0.24 0.07 76 1016.1
20260506031012 59 237 4.0 16.0 0.00 0.24 0.07 76 1016.0
20260506030512 59 257 4.0 16.0 0.00 0.24 0.07 76 1015.9
20260506030030 59 293 5.0 16.0 0.00 0.24 0.07 75 1015.8
20260506025510 60 257 5.0 12.0 0.00 0.24 0.07 75 1015.7
20260506025010 60 217 5.0 12.0 0.00 0.24 0.07 75 1015.8
20260506024529 60 229 5.0 17.0 0.00 0.24 0.07 75 1015.8
20260506024010 60 233 8.0 17.0 0.00 0.24 0.07 74 1015.8
20260506023511 60 241 6.0 14.0 0.00 0.24 0.07 74 1015.6
20260506023028 61 254 5.0 12.0 0.00 0.24 0.07 74 1015.5
20260506022513 61 267 5.0 14.0 0.00 0.24 0.07 74 1015.4
20260506022013 61 234 6.0 14.0 0.00 0.24 0.07 74 1015.4
20260506021533 61 239 5.0 14.0 0.00 0.24 0.07 74 1015.4
20260506021014 61 297 4.0 14.0 0.00 0.24 0.07 73 1015.5
20260506020511 61 199 5.0 13.0 0.00 0.24 0.07 73 1015.4
20260506020028 62 219 7.0 14.0 0.00 0.24 0.07 73 1015.3
20260506015514 62 198 4.0 14.0 0.00 0.25 0.07 73 1015.3
20260506015014 62 242 6.0 14.0 0.00 0.25 0.07 73 1015.3
20260506014530 62 226 5.0 13.0 0.00 0.25 0.07 72 1015.3
20260506014013 62 237 5.0 13.0 0.00 0.25 0.07 72 1015.2
20260506013513 62 236 5.0 14.0 0.00 0.25 0.07 71 1015.1
20260506013029 62 178 6.0 14.0 0.00 0.25 0.07 71 1015.1
20260506012513 63 194 5.0 16.0 0.00 0.25 0.07 71 1015.0
20260506012012 63 223 7.0 16.0 0.00 0.25 0.07 71 1015.1
20260506011527 63 247 5.0 15.0 0.00 0.25 0.07 71 1014.9
20260506011013 63 211 5.0 15.0 0.00 0.25 0.07 71 1015.0
20260506010514 63 229 6.0 15.0 0.00 0.25 0.07 70 1014.8
20260506010030 63 216 6.0 13.0 0.00 0.25 0.07 71 1014.9
20260506005512 63 184 5.0 13.0 0.00 0.25 0.07 71 1014.9
20260506005012 63 219 5.0 12.0 0.00 0.25 0.07 71 1015.0
20260506004536 63 198 5.0 12.0 0.00 0.25 0.07 71 1015.0
20260506004012 64 183 5.0 12.0 0.00 0.25 0.07 71 1014.8
20260506003514 64 205 4.0 14.0 0.00 0.25 0.07 71 1014.9
20260506003038 63 214 6.0 14.0 0.00 0.25 0.07 70 1014.8
20260506002514 63 237 4.0 13.0 0.00 0.25 0.07 71 1014.7
20260506002013 63 229 6.0 12.0 0.00 0.25 0.07 70 1014.8
20260506001527 64 238 5.0 12.0 0.00 0.25 0.07 70 1014.7
20260506001015 64 202 4.0 12.0 0.00 0.25 0.07 70 1014.6
20260506000515 64 288 5.0 11.0 0.00 0.25 0.07 70 1014.7
20260506000030 64 195 4.0 10.0 0.00 0.25 0.07 70 1014.7
20260505235514 64 181 4.0 10.0 0.00 0.25 0.07 69 1014.7
20260505235014 64 254 3.0 10.0 0.00 0.25 0.07 70 1014.7
20260505234549 64 246 3.0 10.0 0.00 0.25 0.07 70 1014.7
20260505234018 64 210 3.0 10.0 0.00 0.25 0.07 70 1014.8
20260505233518 64 173 3.0 9.0 0.00 0.25 0.07 70 1014.8
20260505233031 64 197 3.0 11.0 0.00 0.25 0.07 70 1014.8
20260505232510 64 198 4.0 11.0 0.00 0.25 0.07 70 1014.8
20260505232012 64 238 5.0 9.0 0.00 0.25 0.07 70 1014.9
20260505231533 64 257 3.0 7.0 0.00 0.25 0.07 71 1014.9
20260505231012 64 244 3.0 13.0 0.00 0.25 0.07 71 1014.9
20260505230512 63 155 5.0 13.0 0.00 0.25 0.07 71 1014.9
20260505230038 63 192 3.0 9.0 0.00 0.25 0.07 71 1014.9
20260505225517 63 197 3.0 9.0 0.00 0.25 0.07 71 1015.0
20260505225014 63 258 3.0 8.0 0.00 0.25 0.07 71 1015.0
20260505224529 63 163 2.0 9.0 0.00 0.25 0.07 71 1015.1
20260505224011 63 237 4.0 9.0 0.00 0.25 0.07 71 1015.1
20260505223513 63 205 3.0 9.0 0.00 0.25 0.07 71 1015.2
20260505223030 63 221 3.0 9.0 0.00 0.25 0.07 71 1015.1
20260505222511 63 192 3.0 9.0 0.00 0.25 0.07 71 1015.1
20260505222014 63 226 4.0 9.0 0.00 0.25 0.07 71 1015.3
20260505221530 63 184 3.0 11.0 0.00 0.25 0.07 71 1015.3
20260505221011 63 165 3.0 11.0 0.00 0.25 0.07 72 1015.3
20260505220513 63 225 3.0 9.0 0.00 0.25 0.07 72 1015.2
20260505220038 62 164 3.0 10.0 0.00 0.25 0.07 72 1015.3
20260505215514 62 222 3.0 10.0 0.00 0.25 0.07 72 1015.3
20260505215012 62 216 3.0 9.0 0.00 0.25 0.07 72 1015.3
20260505214536 62 213 3.0 10.0 0.00 0.25 0.07 72 1015.4
20260505214014 62 275 4.0 10.0 0.00 0.25 0.07 72 1015.4
20260505213513 62 220 4.0 10.0 0.00 0.25 0.07 72 1015.4
20260505213030 62 167 4.0 10.0 0.00 0.25 0.07 72 1015.4
20260505212515 62 233 4.0 10.0 0.00 0.25 0.07 72 1015.4
20260505212017 63 240 4.0 9.0 0.00 0.25 0.07 72 1015.5
20260505211530 63 252 3.0 9.0 0.00 0.25 0.07 72 1015.5
20260505211013 63 243 3.0 9.0 0.00 0.25 0.07 72 1015.4
20260505210515 63 216 3.0 10.0 0.00 0.25 0.07 72 1015.4
20260505210030 63 253 2.0 10.0 0.00 0.25 0.07 72 1015.4
20260505205512 63 225 4.0 10.0 0.00 0.25 0.07 71 1015.5
20260505205014 63 169 4.0 8.0 0.00 0.25 0.07 70 1015.4
20260505204530 63 223 3.0 8.0 0.00 0.25 0.07 71 1015.5
20260505204013 63 232 3.0 8.0 0.00 0.25 0.07 71 1015.5
20260505203515 63 265 2.0 7.0 0.00 0.25 0.07 71 1015.6
20260505203029 63 263 2.0 10.0 0.00 0.25 0.07 71 1015.6
20260505202514 63 242 2.0 10.0 0.00 0.25 0.07 71 1015.6
20260505202014 63 254 3.0 10.0 0.00 0.25 0.07 71 1015.6
20260505201528 63 238 3.0 10.0 0.00 0.25 0.07 71 1015.5
20260505201013 63 266 3.0 10.0 0.00 0.25 0.07 71 1015.5
20260505200512 63 215 3.0 10.0 0.00 0.25 0.07 70 1015.5
20260505200029 63 223 4.0 10.0 0.00 0.25 0.07 70 1015.6
20260505195513 63 239 4.0 9.0 0.00 0.25 0.07 71 1015.6
20260505195016 63 207 4.0 12.0 0.00 0.25 0.07 72 1015.6
20260505194534 63 270 4.0 12.0 0.00 0.25 0.07 71 1015.6
20260505194013 62 254 3.0 10.0 0.00 0.25 0.07 72 1015.7
20260505193513 62 238 5.0 11.0 0.00 0.25 0.07 71 1015.8
20260505193037 62 244 6.0 11.0 0.00 0.25 0.07 71 1015.8
20260505192514 62 247 4.0 12.0 0.00 0.25 0.07 72 1015.7
20260505192014 62 229 5.0 12.0 0.00 0.25 0.07 72 1015.7
20260505191544 62 265 5.0 11.0 0.00 0.25 0.07 72 1015.7
20260505191018 62 238 4.0 10.0 0.00 0.25 0.07 73 1015.8
20260505190512 62 252 3.0 10.0 0.00 0.25 0.07 73 1015.7
20260505190032 62 255 4.0 10.0 0.00 0.25 0.07 72 1015.7
20260505185518 62 225 3.0 10.0 0.00 0.25 0.07 73 1015.6
20260505185014 62 222 5.0 10.0 0.00 0.25 0.07 73 1015.6
20260505184528 62 202 3.0 10.0 0.00 0.25 0.07 75 1015.6
20260505184014 61 165 4.0 10.0 0.00 0.25 0.07 74 1015.6
20260505183513 61 259 3.0 10.0 0.00 0.25 0.07 75 1015.6
20260505183030 61 257 5.0 10.0 0.00 0.25 0.07 75 1015.6
20260505182512 60 263 5.0 14.0 0.00 0.25 0.07 77 1015.7
20260505182016 60 209 6.0 14.0 0.00 0.25 0.07 77 1015.7
20260505181529 60 243 5.0 11.0 0.00 0.25 0.07 77 1015.6
20260505181012 60 210 5.0 9.0 0.00 0.25 0.07 77 1015.6
20260505180513 60 208 5.0 9.0 0.00 0.25 0.07 77 1015.6
20260505180044 59 250 4.0 9.0 0.00 0.25 0.07 79 1015.6
20260505175514 59 275 4.0 8.0 0.00 0.25 0.07 80 1015.7
20260505175013 58 267 4.0 10.0 0.00 0.25 0.07 81 1015.5
20260505174538 58 211 4.0 10.0 0.00 0.25 0.07 81 1015.5
20260505174013 58 268 4.0 14.0 0.00 0.25 0.07 81 1015.4
20260505173514 58 227 5.0 14.0 0.00 0.25 0.07 81 1015.4
20260505173028 58 231 6.0 13.0 0.00 0.25 0.07 81 1015.4
20260505172512 58 227 4.0 14.0 0.00 0.25 0.07 82 1015.3
20260505172012 57 227 8.0 14.0 0.00 0.25 0.07 82 1015.3
20260505171533 57 237 6.0 15.0 0.00 0.25 0.07 83 1015.2
20260505171011 57 257 6.0 15.0 0.00 0.25 0.07 83 1015.3
20260505170514 57 236 7.0 15.0 0.00 0.25 0.07 83 1015.1
20260505170031 57 232 5.0 12.0 0.00 0.25 0.07 85 1015.2
20260505165514 56 293 6.0 12.0 0.00 0.25 0.07 85 1015.2
20260505165013 56 221 4.0 12.0 0.00 0.25 0.07 85 1015.3
20260505164527 56 225 5.0 12.0 0.00 0.25 0.07 85 1015.2
20260505164013 56 223 2.0 10.0 0.00 0.25 0.07 85 1015.2
20260505163514 56 232 3.0 10.0 0.00 0.25 0.07 85 1015.2
20260505163028 55 275 5.0 11.0 0.00 0.25 0.07 85 1015.2
20260505162513 55 296 2.0 13.0 0.00 0.25 0.07 86 1015.3
20260505162014 55 237 4.0 13.0 0.00 0.25 0.07 86 1015.4
20260505161529 55 269 3.0 9.0 0.00 0.25 0.07 86 1015.3
20260505161011 55 304 2.0 9.0 0.00 0.25 0.07 86 1015.2
20260505160514 55 248 5.0 11.0 0.00 0.25 0.07 86 1015.2
20260505153031 55 263 3.0 11.0 0.00 0.25 0.07 87 1015.0
20260505152516 55 238 3.0 11.0 0.00 0.25 0.07 87 1014.9
20260505152015 55 261 3.0 11.0 0.00 0.25 0.07 87 1014.9
20260505151533 55 248 2.0 8.0 0.00 0.25 0.07 87 1014.7
20260505151014 55 237 1.0 8.0 0.00 0.25 0.07 87 1014.7
20260505150511 55 261 2.0 5.0 0.00 0.25 0.07 87 1014.7